Regional Weather Roundup
Issued by NWS

Home | Current Version | Previous Version | Text Only | Print | Product List | Glossary On
Versions: 1 2 3 4 5 6 7 8 9 10 11 12 13 14 15 16 17 18 19 20 21 22 23 24 25 26 27 28 29 30 31 32 33 34 35 36 37 38 39 40 41 42 43 44 45 46 47 48 49 50
000
ASPQ40 PGUM 190012
RWRPQ
WEATHER ROUNDUP FOR THE MARIANAS AND MICRONESIA
NATIONAL WEATHER SERVICE TIYAN GU
1000 AM CHST FRI SEP 19 2014

GUZ001>004-190100-
MARIANA ISLANDS-

CITY           SKY/WX    TMP DP  RH WIND       PRES   REMARKS
GUAM AIRPORT   SUNNY     82  79  89 N10       29.92F HX  93
ANDERSEN AFB   DRIZZLE   81  77  89 N12       29.92F
ROTA AIRPORT   PTSUNNY   82  77  83 N9        29.93F HX  91
TINIAN AP      PTSUNNY   84  77  79 N12       29.90S HX  94
SAIPAN AP      MOSUNNY   88  75  66 NE12      29.91S HX  97

$$

PMZ161-190100-
REPUBLIC OF PALAU-

CITY           SKY/WX    TMP DP  RH WIND       PRES   REMARKS
KOROR AP       PTSUNNY   88  77  70 S5        29.92S HX 100
KOROR WSO      NOT AVBL

$$

PMZ171>174-190100-
FEDERATED STATES OF MICRONESIA-

CITY           SKY/WX    TMP DP  RH WIND       PRES   REMARKS
YAP AIRPORT    PTSUNNY   86  77  74 N9        29.92R HX  97
CHUUK AP       MOSUNNY   90  82  79 VRB5      29.82S HX 111
POHNPEI AP     MOSUNNY   88  79  74 NE6       29.81F HX 102
POHNPEI WSO    PTSUNNY   88  77  70 NE6       29.84F HX 100
KOSRAE AP      MOSUNNY   90  75  62 N8        29.80F HX 100

$$

PMZ181-190100-
REPUBLIC OF THE MARSHALL ISLANDS-

CITY           SKY/WX    TMP DP  RH WIND       PRES   REMARKS
KWAJALEIN AP   MOSUNNY   88  75  66 E7        29.80F HX  97
MAJURO AP      NOT AVBL
MAJURO WSO     MOSUNNY   88  79  74 VRB3      29.80F HX 102

$$



USA.gov is the U.S. government's official web portal to all federal, state and local government web resources and services.